User: anonymous   Login
Location: Blue Mountain Vista Observatory
(40.6992°N, 75.9422°W)
Time: 18:49:59
(UTC-04:00)
Language:

CZ-4C R/B - Orbit

View from above orbital plane
View from above orbital plane
View from above satellite
View from above satellite

Ground track
Ground track

The orbit data is extracted from the following two-line orbital elements,

1 36416U 10009D   18114.40925901 -.00000073  00000-0  15534-4 0  9998
2 36416  63.4336 149.3127 0417752 355.7067   4.0428 13.69531900406996
Epoch (UTC): 24 April 2018 09:49:19
Eccentricity: 0.0417752
inclination: 63.4336°
perigee height: 693 km
apogee height: 1309 km
right ascension of ascending node: 149.3127°
argument of perigee: 355.7067°
revolutions per day: 13.69531900
mean anomaly at epoch: 4.0428°
orbit number at epoch: 40699

The dashed part of the orbit path shows where the satellite is in the earth's shadow,  

DLR